Regional Weather Roundup
Issued by NWS

Home | Current Version | Previous Version | Graphics & Text | Print | Product List | Glossary On
Versions: 1 2 3 4 5 6 7 8 9 10 11 12 13 14 15 16 17 18 19 20 21 22 23 24 25 26 27 28 29 30 31 32 33 34 35 36 37 38 39 40 41 42 43 44 45 46 47 48 49 50
000
ASUS43 KBIS 290810
RWRND

NORTH DAKOTA REGIONAL WEATHER ROUNDUP
NATIONAL WEATHER SERVICE BISMARCK ND
300 AM CDT THU JUN 29 2017

NOTE: "FAIR" INDICATES FEW OR NO CLOUDS BELOW 12,000 FEET WITH NO
SIGNIFICANT WEATHER AND/OR OBSTRUCTIONS TO VISIBILITY.


NDZ001>003-009>011-017-290900-
NORTHWEST NORTH DAKOTA

CITY           SKY/WX    TMP DP  RH WIND       PRES   REMARKS
WILLISTON      CLOUDY    57  49  74 E6        29.79S
MINOT          CLEAR     57  51  80 W6        29.75F
MINOT AFB      CLEAR     51  48  89 NW3       29.75F
$$

NDZ018>021-031>035-040>046-290900-
SOUTHWEST NORTH DAKOTA

CITY           SKY/WX    TMP DP  RH WIND       PRES   REMARKS
BISMARCK       CLOUDY    58  54  86 CALM      29.76R
DICKINSON      CLOUDY    61  43  51 E3        29.77S
GARRISON         N/A     57  51  80 N5        29.75F
HETTINGER ARPT CLOUDY    57  46  66 SE3       29.79F
$$

NDZ004>008-012>016-024-026-027-054-290900-
NORTHEAST NORTH DAKOTA

CITY           SKY/WX    TMP DP  RH WIND       PRES   REMARKS
GRAND FORKS    CLOUDY    62  62 100 E3        29.71S
GRND FRKS AFB  CLOUDY    60  60 100 NW5       29.72S
DEVILS LAKE    CLOUDY    56  55  97 CALM      29.75F
$$

NDZ022-023-025-028>030-036>039-047>053-290900-
SOUTHEAST NORTH DAKOTA

CITY           SKY/WX    TMP DP  RH WIND       PRES   REMARKS
FARGO          CLOUDY    62  60  93 N13       29.70S
JAMESTOWN      CLEAR     55  52  89 NW3       29.73S
$$





USA.gov is the U.S. government's official web portal to all federal, state and local government web resources and services.